sat.trackr.live / text

‹ back to catalog

AMC-3

NORAD 24936 · 1997-050A

PAYLOAD ACTIVE UNKNOWN

§ Identity

Operator
Country
SES
Launch date
1997-09-04
Launch site
AFETR
Launch vehicle
Mass (kg)
RCS (m²)
8.36

Purposes: comms

External: N2YO · Heavens-Above · Gunter

§ Orbital elements

Epoch: 2026-05-24T08:27:38.529792Z

Period
1,436.11 min
Inclination
8.0897°
Eccentricity
0.0003024
Mean motion
1.00270769 rev/d
Perigee alt
35,774.1 km
Apogee alt
35,799.6 km
Semi-major
42,165.0 km
B*
0.0000e+0
RAAN
64.3594°
Arg perigee
359.2674°
Mean anomaly
233.2192°
Rev number
5,219

§ Raw data

AMC-31 24936U 97050A   26144.35252928 -.00000266  00000+0  00000+0 0  99912 24936   8.0897  64.3594 0003024 359.2674 233.2192  1.00270769 52195

JSON: /api/v1/satellites/24936 · /tle

For live sub-satellite position, see the globe view (requires WebGL).

§ Visibility from observer

Set your observer location to see the next 7 days of passes ≥ 10°. The values pass through the URL so the page stays shareable.

No JS? Fill the form by hand. The geolocation button needs JavaScript.